Location: Sungai Bunut
(2.6333°N, 113.7333°E)
Time: 10:07:29
(UTC+00:00)

Transit 2A - Pass Details

Date: 03 December 2023
Orbit: 599 x 953 km, 66.7° (Epoch: 01 March)

Event Time Altitude Azimuth Distance (km) Brightness Sun altitude
Rises 07:27:40 0° 216° (SW) 3,521 10.2 36.8°
Reaches altitude 10° 07:30:28 10° 225° (SW) 2,533 9.9 36.2°
Maximum altitude 07:35:43 35° 289° (WNW) 1,315 8.2 35.1°
Drops below altitude 10° 07:40:34 10° 354° (N) 2,313 8.4 34.0°
Sets 07:43:02 0° 3° (N) 3,177 8.9 33.5°
